This demonstration page uses our WeatherBlox Daily Observations layout. Learn more.

Left ArrowRight Arrow

53.62937, 11.41316

Hourly Observations for October 6, 2015

Temp ( °F °C ) Dew Point ( °F °C ) Humidity (%) Winds ( mph kmh ) Pressure ( in mb ) Visibility ( mi km ) Precip ( " mm )
6:20 am 06:20 Mostly Clear with Mist and Fog 50 10 48 9 94 94 E 12 19 29.85 1011 2 4 N/A
6:50 am 06:50 Mostly Clear with Mist and Fog 50 10 48 9 94 94 E 12 19 29.85 1011 3 5 N/A
7:20 am 07:20 Mostly Clear with Mist and Fog 52 11 48 9 88 88 E 13 20 29.83 1010 3 5 N/A
7:50 am 07:50 Mostly Sunny 52 11 48 9 88 88 E 14 22 29.83 1010 3 5 N/A
8:20 am 08:20 Mostly Sunny 52 11 48 9 88 88 E 16 26 29.83 1010 3 5 N/A
8:50 am 08:50 Mostly Sunny 52 11 50 10 94 94 E 16 26 29.83 1010 4 6 N/A
9:20 am 09:20 Mostly Sunny 54 12 50 10 88 88 E 15 24 29.83 1010 4 6 N/A
9:50 am 09:50 Mostly Sunny 55 13 50 10 82 82 E 17 28 29.83 1010 4 7 N/A
10:20 am 10:20 Mostly Sunny 55 13 50 10 82 82 E 16 26 29.83 1010 5 8 N/A
10:50 am 10:50 Mostly Sunny 57 14 52 11 82 82 E 17 28 29.80 1009 6 9 N/A
11:20 am 11:20 Mostly Sunny 57 14 52 11 82 82 E 20 31 29.80 1009 6 9 N/A
11:50 am 11:50 Mostly Sunny 59 15 52 11 77 77 E 18 30 29.80 1009 7 11 N/A
12:20 pm 12:20 Mostly Sunny 61 16 52 11 72 72 E 16 26 29.80 1009 7 11 N/A
12:50 pm 12:50 Mostly Sunny 61 16 52 11 72 72 E 16 26 29.80 1009 7 11 N/A
1:20 pm 13:20 Partly Cloudy with Light Rain 61 16 52 11 72 72 E 15 24 29.80 1009 30 48 N/A
1:50 pm 13:50 Mostly Cloudy 61 16 52 11 72 72 E 16 26 29.77 1008 5 8 N/A
2:20 pm 14:20 Mostly Cloudy 61 16 52 11 72 72 E 17 28 29.77 1008 5 8 N/A
2:50 pm 14:50 Mostly Cloudy 61 16 52 11 72 72 E 17 28 29.77 1008 5 8 N/A
3:20 pm 15:20 Mostly Sunny 61 16 52 11 72 72 E 15 24 29.80 1009 5 8 N/A
3:50 pm 15:50 Mostly Sunny 61 16 52 11 72 72 E 14 22 29.77 1008 5 8 N/A
4:20 pm 16:20 Mostly Cloudy 61 16 52 11 72 72 E 14 22 29.77 1008 5 8 N/A
4:50 pm 16:50 Mostly Cloudy 61 16 52 11 72 72 E 14 22 29.77 1008 5 8 N/A
5:20 pm 17:20 Mostly Cloudy 61 16 52 11 72 72 E 14 22 29.77 1008 4 7 N/A
5:50 pm 17:50 Mostly Cloudy 61 16 52 11 72 72 E 16 26 29.77 1008 4 6 N/A
6:20 pm 18:20 Mostly Cloudy 59 15 52 11 77 77 E 16 26 29.77 1008 4 6 N/A
6:50 pm 18:50 Mostly Cloudy 59 15 52 11 77 77 E 13 20 29.80 1009 5 8 N/A
7:20 pm 19:20 Mostly Cloudy 59 15 54 12 82 82 E 12 19 29.80 1009 5 8 N/A
7:50 pm 19:50 Mostly Cloudy 59 15 54 12 82 82 E 13 20 29.80 1009 4 7 N/A
8:20 pm 20:20 Mostly Cloudy 59 15 54 12 82 82 E 13 20 29.80 1009 4 7 N/A
8:50 pm 20:50 Mostly Cloudy 59 15 54 12 82 82 E 13 20 29.80 1009 4 7 N/A
9:20 pm 21:20 Mostly Cloudy 59 15 52 11 77 77 E 14 22 29.80 1009 4 7 N/A
9:50 pm 21:50 Mostly Cloudy 59 15 52 11 77 77 E 14 22 29.80 1009 5 8 N/A
10:20 pm 22:20 Mostly Cloudy 59 15 52 11 77 77 E 12 19 29.80 1009 4 7 N/A
10:50 pm 22:50 Mostly Cloudy 57 14 52 11 82 82 E 14 22 29.83 1010 6 9 N/A
11:20 pm 23:20 Mostly Cloudy 57 14 52 11 82 82 E 14 22 29.83 1010 6 9 N/A
11:50 pm 23:50 Mostly Cloudy 57 14 52 11 82 82 E 13 20 29.83 1010 30 48 N/A

Powered by AerisWeather